Date String (YYYY-MM-DD hh:mm:ss) UTC,Instrument flags,Ambient pressure (hPa),Sample flow (lpm),Bypass flow (lpm),Sample temperature (°C),Ambient temperature (°C),ASC tube jacket temperature (°C),LED temperature (°C),Box temperature (°C),Sample RH (%),Span deviation,Mass concentration (μg/m³),Mass concentration (μg/m³),Mass concentration (μg/m³)
DateTimeUTC,F1_M11,P_M11,Q1_M11,Q2_M11,T1_M11,T2_M11,T3_M11,T4_M11,T5_M11,U1_M11,ZSPAN_M11,X0_M11,X2_M11,X1_M11
2022-06-01 13:00:00,,0832.8,5.00,0.00,25.5,24.4,00.0,34.5,27.4,22.1,0000.0,0001.13,0000.73,0000.59
2022-06-01 13:01:00,,0832.8,4.99,0.00,25.5,24.4,00.0,34.5,27.4,22.2,0000.0,0001.10,0000.72,0000.60
2022-06-01 13:02:00,,0832.8,5.00,0.00,25.5,24.4,00.0,34.4,27.4,22.2,0000.0,0001.03,0000.72,0000.61
2022-06-01 13:03:00,,0832.7,4.99,0.00,25.5,24.4,00.0,34.4,27.4,22.2,0000.0,0001.10,0000.75,0000.61
2022-06-01 13:04:00,,0832.8,5.01,0.00,25.5,24.4,00.0,34.4,27.4,22.3,0000.0,0001.18,0000.79,0000.62
2022-06-01 13:05:00,,0832.8,4.99,0.00,25.5,24.4,00.0,34.4,27.4,22.3,0000.0,0001.16,0000.78,0000.63
2022-06-01 13:06:00,,0832.8,5.01,0.00,25.5,24.4,00.0,34.4,27.4,23.2,0000.0,0001.17,0000.79,0000.64
2022-06-01 13:07:00,,0832.7,4.99,0.00,25.5,24.4,00.0,34.4,27.4,24.3,0000.0,0001.16,0000.80,0000.68
2022-06-01 13:08:00,,0832.7,5.00,0.00,25.5,24.4,00.0,34.4,27.4,23.7,0000.0,0001.22,0000.84,0000.71
2022-06-01 13:09:00,,0832.8,5.00,0.00,25.5,24.4,00.0,34.4,27.4,23.4,0000.0,0001.31,0000.90,0000.75
2022-06-01 13:10:00,,0832.8,4.99,0.00,25.5,24.4,00.0,34.4,27.4,23.3,0000.0,0001.41,0000.96,0000.79
2022-06-01 13:11:00,,0832.8,5.01,0.00,25.5,24.4,00.0,34.4,27.4,23.3,0000.0,0001.38,0000.99,0000.83
2022-06-01 13:12:00,,0832.8,4.99,0.00,25.5,24.4,00.0,34.4,27.4,23.4,0000.0,0001.36,0001.03,0000.85
2022-06-01 13:13:00,,0832.8,5.01,0.00,25.5,24.5,00.0,34.4,27.4,23.3,0000.0,0001.41,0001.08,0000.90
2022-06-01 13:14:00,,0832.8,4.99,0.00,25.5,24.5,00.0,34.4,27.4,23.2,0000.0,0001.47,0001.13,0000.94
2022-06-01 13:15:00,,0832.8,5.00,0.00,25.5,24.5,00.0,34.4,27.4,23.2,0000.0,0001.45,0001.15,0000.97
2022-06-01 13:16:00,,0832.9,5.00,0.00,25.5,24.5,00.0,34.4,27.4,23.3,0000.0,0001.59,0001.22,0001.01
2022-06-01 13:17:00,,0832.9,5.01,0.00,25.5,24.5,00.0,34.4,27.4,23.6,0000.0,0001.61,0001.24,0001.04
2022-06-01 13:18:00,,0832.8,5.00,0.00,25.5,24.5,00.0,34.4,27.4,23.4,0000.0,0001.66,0001.27,0001.06
2022-06-01 13:19:00,,0832.8,5.00,0.00,25.5,24.5,00.0,34.4,27.4,23.4,0000.0,0001.66,0001.29,0001.08
2022-06-01 13:20:00,,0832.8,4.99,0.00,25.5,24.5,00.0,34.4,27.4,23.3,0000.0,0001.60,0001.28,0001.10
2022-06-01 13:21:00,,0832.9,5.01,0.00,25.5,24.5,00.0,34.4,27.4,23.4,0000.0,0001.56,0001.28,0001.10
2022-06-01 13:22:00,,0832.8,4.99,0.00,25.5,24.5,00.0,34.4,27.4,23.4,0000.0,0001.57,0001.28,0001.11
2022-06-01 13:23:00,,0832.9,5.01,0.00,25.5,24.5,00.0,34.4,27.5,23.4,0000.0,0001.57,0001.28,0001.11
2022-06-01 13:24:00,,0832.9,4.99,0.00,25.5,24.5,00.0,34.4,27.5,23.5,0000.0,0001.59,0001.28,0001.11
2022-06-01 13:25:00,,0833.0,5.01,0.00,25.5,24.5,00.0,34.4,27.5,23.4,0000.0,0001.66,0001.30,0001.11
2022-06-01 13:26:00,,0833.0,4.99,0.00,25.5,24.5,00.0,34.4,27.4,23.5,0000.0,0001.66,0001.28,0001.12
2022-06-01 13:27:00,,0833.0,4.99,0.00,25.5,24.4,00.0,34.4,27.4,23.5,0000.0,0001.67,0001.27,0001.12
2022-06-01 13:28:00,,0833.0,5.01,0.00,25.5,24.4,00.0,34.4,27.4,23.6,0000.0,0001.68,0001.27,0001.12
2022-06-01 13:29:00,,0833.0,4.99,0.00,25.5,24.4,00.0,34.4,27.4,23.6,0000.0,0001.70,0001.28,0001.13
2022-06-01 13:30:00,,0833.0,5.01,0.00,25.5,24.5,00.0,34.4,27.5,23.7,0000.0,0001.75,0001.29,0001.12
2022-06-01 13:31:00,,0833.0,4.99,0.00,25.5,24.5,00.0,34.4,27.4,23.7,0000.0,0001.81,0001.32,0001.13
2022-06-01 13:32:00,,0833.0,5.00,0.00,25.5,24.5,00.0,34.4,27.4,23.6,0000.0,0001.86,0001.34,0001.15
2022-06-01 13:33:00,,0833.0,5.00,0.00,25.5,24.5,00.0,34.4,27.5,23.6,0000.0,0001.93,0001.39,0001.17
2022-06-01 13:34:00,,0833.0,4.99,0.00,25.5,24.5,00.0,34.4,27.4,23.6,0000.0,0001.97,0001.42,0001.20
2022-06-01 13:35:00,,0833.0,5.01,0.00,25.5,24.5,00.0,34.4,27.4,23.8,0000.0,0001.99,0001.45,0001.22
2022-06-01 13:36:00,,0833.1,5.00,0.00,25.5,24.5,00.0,34.4,27.5,23.7,0000.0,0001.95,0001.46,0001.25
2022-06-01 13:37:00,,0833.0,4.99,0.00,25.5,24.5,00.0,34.4,27.5,23.9,0000.0,0001.90,0001.48,0001.27
2022-06-01 13:38:00,,0833.1,4.99,0.00,25.5,24.5,00.0,34.4,27.5,23.9,0000.0,0001.95,0001.52,0001.29
2022-06-01 13:39:00,,0833.1,5.00,0.00,25.5,24.5,00.0,34.4,27.5,23.8,0000.0,0002.08,0001.54,0001.32
2022-06-01 13:40:00,,0833.1,4.99,0.00,25.5,24.5,00.0,34.4,27.5,23.6,0000.0,0002.28,0001.57,0001.35
2022-06-01 13:41:00,,0833.1,4.99,0.00,25.5,24.5,00.0,34.4,27.5,23.6,0000.0,0002.44,0001.60,0001.38
2022-06-01 13:42:00,,0833.1,5.00,0.00,25.5,24.4,00.0,34.4,27.4,23.4,0000.0,0002.47,0001.61,0001.39
2022-06-01 13:43:00,,0833.1,5.01,0.00,25.5,24.4,00.0,34.4,27.4,23.4,0000.0,0002.42,0001.60,0001.40
2022-06-01 13:44:00,,0833.1,5.00,0.00,25.5,24.4,00.0,34.4,27.4,23.3,0000.0,0002.37,0001.59,0001.40
2022-06-01 13:45:00,,0833.1,5.00,0.00,25.5,24.4,00.0,34.4,27.4,23.2,0000.0,0002.36,0001.59,0001.40
2022-06-01 13:46:00,,0833.0,5.00,0.00,25.5,24.4,00.0,34.4,27.4,23.1,0000.0,0002.36,0001.59,0001.41
2022-06-01 13:47:00,,0833.1,5.01,0.00,25.5,24.4,00.0,34.4,27.4,23.1,0000.0,0002.36,0001.59,0001.41
2022-06-01 13:48:00,,0833.0,4.99,0.00,25.5,24.4,00.0,34.4,27.4,23.2,0000.0,0002.34,0001.58,0001.42
2022-06-01 13:49:00,,0833.1,5.00,0.00,25.5,24.4,00.0,34.4,27.4,23.1,0000.0,0002.24,0001.56,0001.41
2022-06-01 13:50:00,,0833.0,5.00,0.00,25.5,24.4,00.0,34.4,27.4,23.0,0000.0,0002.09,0001.54,0001.41
2022-06-01 13:51:00,,0833.0,5.01,0.00,25.5,24.4,00.0,34.4,27.4,23.1,0000.0,0001.95,0001.52,0001.40
2022-06-01 13:52:00,,0833.0,4.99,0.00,25.5,24.4,00.0,34.4,27.4,23.0,0000.0,0001.78,0001.50,0001.39
2022-06-01 13:53:00,,0833.0,5.00,0.00,25.5,24.4,00.0,34.4,27.4,23.2,0000.0,0001.63,0001.46,0001.39
2022-06-01 13:54:00,,0833.1,5.00,0.00,25.5,24.4,00.0,34.4,27.4,23.3,0000.0,0001.63,0001.47,0001.39
2022-06-01 13:55:00,,0833.1,5.01,0.00,25.5,24.4,00.0,34.4,27.4,23.3,0000.0,0001.66,0001.47,0001.39
2022-06-01 13:56:00,,0833.0,5.00,0.00,25.5,24.4,00.0,34.4,27.4,23.3,0000.0,0001.74,0001.52,0001.41
2022-06-01 13:57:00,,0833.0,5.00,0.00,25.5,24.5,00.0,34.4,27.4,23.2,0000.0,0001.79,0001.56,0001.44
2022-06-01 13:58:00,,0833.0,5.00,0.00,25.5,24.5,00.0,34.4,27.4,23.2,0000.0,0001.82,0001.60,0001.47
2022-06-01 13:59:00,,0833.0,4.98,0.00,25.5,24.5,00.0,34.4,27.4,23.2,0000.0,0001.93,0001.67,0001.52
